Powrót do katalogu

STARLINK-36424

AktywnyŁącznośćVLEO
NORAD 67419·PAYLOAD·🇺🇸 United States

Wystrzelony Jan 12, 2026 z Cape Canaveral Space Force Station

Loading…

Następne Przeloty (najbliższe 24 godziny)

TLE

ŚwieżeSource: CelesTrak SupGP

Epoka: Sep 15, 2026, 03:06 UTC

1 67419C 26005R   26258.12965278 -.00031368  00000+0 -11362-2 0  2588
2 67419  43.0001 247.9220 0000978 265.5702   7.5679 15.27592368    17

Śledź STARLINK-36424 w czasie rzeczywistym z AllMySat

Download on the App Store